Satellite: ISS
Catalog number: 25544
Epoch time:      10280.80575351
Element set:      30
Inclination:      051.6478 deg
RA of node:       014.4306 deg
Eccentricity:    0.0007682
Arg of perigee:   071.6451 deg
Mean anomaly:     020.7177 deg
Mean motion:   15.71746973 rev/day
Decay rate:     1.7987e-04 rev/day^2
Epoch rev:           68118
Checksum:              301

Satellite: CO-58
Catalog number: 28895
Epoch time:      10280.65753610
Element set:     698
Inclination:      097.9962 deg
RA of node:       161.3047 deg
Eccentricity:    0.0016528
Arg of perigee:   293.4161 deg
Mean anomaly:     066.5312 deg
Mean motion:   14.59942954 rev/day
Decay rate:       2.67e-06 rev/day^2
Epoch rev:           26339
Checksum:              347

Satellite: FALCON
Catalog number: 30776
Epoch time:      10280.81890400
Element set:     931
Inclination:      035.4325 deg
RA of node:       080.3932 deg
Eccentricity:    0.0001068
Arg of perigee:   011.5532 deg
Mean anomaly:     348.5209 deg
Mean motion:   15.03857278 rev/day
Decay rate:       8.15e-06 rev/day^2
Epoch rev:           19702
Checksum:              275

Satellite: MAST
Catalog number: 31126
Epoch time:      10279.66590591
Element set:    0982
Inclination:      097.9264 deg
RA of node:       315.8510 deg
Eccentricity:    0.0093503
Arg of perigee:   239.6232 deg
Mean anomaly:     119.5702 deg
Mean motion:   14.53626024 rev/day
Decay rate:       1.41e-06 rev/day^2
Epoch rev:           18425
Checksum:              292

Satellite: CAPE1
Catalog number: 31130
Epoch time:      10279.54940758
Element set:    0000
Inclination:      097.9283 deg
RA of node:       312.9342 deg
Eccentricity:    0.0101137
Arg of perigee:   248.7472 deg
Mean anomaly:     110.2952 deg
Mean motion:   14.52230498 rev/day
Decay rate:       2.60e-06 rev/day^2
Epoch rev:           18382
Checksum:              276

Satellite: COMPASS
Catalog number: 32787
Epoch time:      10279.78017291
Element set:    0797
Inclination:      097.8832 deg
RA of node:       342.9381 deg
Eccentricity:    0.0014705
Arg of perigee:   284.3628 deg
Mean anomaly:     075.5929 deg
Mean motion:   14.81986727 rev/day
Decay rate:       1.91e-06 rev/day^2
Epoch rev:           13202
Checksum:              339

Satellite: AAUSAT2
Catalog number: 32788
Epoch time:      10280.17730451
Element set:     786
Inclination:      097.8851 deg
RA of node:       343.4836 deg
Eccentricity:    0.0014078
Arg of perigee:   284.2014 deg
Mean anomaly:     075.7606 deg
Mean motion:   14.82138418 rev/day
Decay rate:       4.67e-06 rev/day^2
Epoch rev:           13209
Checksum:              312

Satellite: DO-64
Catalog number: 32789
Epoch time:      10279.76821305
Element set:    0805
Inclination:      097.8915 deg
RA of node:       343.6863 deg
Eccentricity:    0.0014478
Arg of perigee:   282.4344 deg
Mean anomaly:     077.5202 deg
Mean motion:   14.82342208 rev/day
Decay rate:       8.55e-06 rev/day^2
Epoch rev:           13203
Checksum:              320

Satellite: CO-66
Catalog number: 32791
Epoch time:      10279.75144112
Element set:    0791
Inclination:      097.8850 deg
RA of node:       342.9094 deg
Eccentricity:    0.0015042
Arg of perigee:   283.2204 deg
Mean anomaly:     076.7376 deg
Mean motion:   14.81755928 rev/day
Decay rate:       7.09e-06 rev/day^2
Epoch rev:           13197
Checksum:              329

Satellite: RS-30
Catalog number: 32953
Epoch time:      10280.65330176
Element set:     109
Inclination:      082.5038 deg
RA of node:       319.7536 deg
Eccentricity:    0.0017932
Arg of perigee:   213.8295 deg
Mean anomaly:     146.1643 deg
Mean motion:   12.43008114 rev/day
Decay rate:        1.0e-07 rev/day^2
Epoch rev:           10771
Checksum:              266

Satellite: TACSAT-3
Catalog number: 35001
Epoch time:      10279.41730726
Element set:    0405
Inclination:      040.4564 deg
RA of node:       265.4409 deg
Eccentricity:    0.0020343
Arg of perigee:   119.0113 deg
Mean anomaly:     241.2743 deg
Mean motion:   15.42957560 rev/day
Decay rate:      5.877e-05 rev/day^2
Epoch rev:           07781
Checksum:              277

Satellite: PHARMSAT
Catalog number: 35002
Epoch time:      10279.33720443
Element set:    0381
Inclination:      040.4693 deg
RA of node:       263.5854 deg
Eccentricity:    0.0022749
Arg of perigee:   120.6450 deg
Mean anomaly:     239.6611 deg
Mean motion:   15.43352380 rev/day
Decay rate:      5.065e-05 rev/day^2
Epoch rev:           07782
Checksum:              278

Satellite: HAWKSAT1
Catalog number: 35003
Epoch time:      10279.30797796
Element set:     406
Inclination:      040.4580 deg
RA of node:       254.7942 deg
Eccentricity:    0.0021182
Arg of perigee:   142.4592 deg
Mean anomaly:     217.7713 deg
Mean motion:   15.47690610 rev/day
Decay rate:     1.1887e-04 rev/day^2
Epoch rev:            7792
Checksum:              308

Satellite: CP6
Catalog number: 35004
Epoch time:      10279.29515691
Element set:    0408
Inclination:      040.4628 deg
RA of node:       252.9008 deg
Eccentricity:    0.0020964
Arg of perigee:   149.3151 deg
Mean anomaly:     210.8898 deg
Mean motion:   15.49006585 rev/day
Decay rate:     1.4656e-04 rev/day^2
Epoch rev:           07793
Checksum:              316

